TAP552N LPPT-EDDM

Flight info

Callsign TAP552N
Flight time 2h 36m
Altitude 36000
Route IXIDA DCT RIVRO DCT TOSDI DCT ZMR DCT NEA/N0438F380 DCT DGO DCT LPA DCT GOSVI DCT TOPTU DCT TOU DCT GAI DCT MEN DCT NINUN DCT LATAM DCT ETREK DCT LTP DCT SOPLO DCT OMASI DCT KINNI DCT LAMUR DCT KORED/N0437F370 DCT NUNRI T103 BETOS BETOS1B
Aircraft A21N/M-SADE1E2E3FGHIJ1J3J7M3P2RWXYZ/LB1D1

Departure

Time 2026-05-07 08:07
Airport Lisbon Humberto Delgado Airport (LPPT)

Arrival

Time 2026-05-07 10:43
Airport Munich Airport (EDDM)
Time Latitude Longitude Altitude Speed Heading
2026-05-07 07:37 38.76529 -9.13384 374 ft 0 kts 74°
2026-05-07 07:56 38.76529 -9.13386 374 ft 2 kts 74°
2026-05-07 07:56 38.76525 -9.13403 374 ft 1 kts 74°
2026-05-07 07:56 38.76521 -9.13417 375 ft 2 kts 54°
2026-05-07 07:56 38.76510 -9.13429 374 ft 2 kts 26°
2026-05-07 07:57 38.76496 -9.13434 374 ft 2 kts 359°
2026-05-07 07:57 38.76487 -9.13433 374 ft 1 kts 342°
2026-05-07 07:57 38.76481 -9.13430 375 ft 0 kts 341°
2026-05-07 08:01 38.76485 -9.13432 374 ft 1 kts 341°
2026-05-07 08:01 38.76497 -9.13437 374 ft 2 kts 341°
2026-05-07 08:02 38.76518 -9.13445 374 ft 4 kts 344°
2026-05-07 08:02 38.76561 -9.13461 374 ft 8 kts 343°
2026-05-07 08:02 38.76614 -9.13482 374 ft 8 kts 336°
2026-05-07 08:02 38.76643 -9.13545 374 ft 9 kts 266°
2026-05-07 08:03 38.76632 -9.13628 374 ft 10 kts 259°
2026-05-07 08:03 38.76617 -9.13720 374 ft 11 kts 258°
2026-05-07 08:03 38.76602 -9.13819 374 ft 12 kts 259°
2026-05-07 08:03 38.76586 -9.13924 374 ft 12 kts 258°
2026-05-07 08:04 38.76564 -9.14032 374 ft 13 kts 255°
2026-05-07 08:04 38.76561 -9.14141 374 ft 13 kts 297°
2026-05-07 08:04 38.76576 -9.14181 374 ft 0 kts 295°
2026-05-07 08:05 38.76576 -9.14183 374 ft 1 kts 295°
2026-05-07 08:05 38.76581 -9.14196 374 ft 3 kts 292°
2026-05-07 08:05 38.76598 -9.14247 374 ft 9 kts 293°
2026-05-07 08:05 38.76632 -9.14338 374 ft 14 kts 315°
2026-05-07 08:06 38.76729 -9.14346 374 ft 13 kts 22°
2026-05-07 08:06 38.76740 -9.14340 374 ft 0 kts 22°
2026-05-07 08:06 38.76835 -9.14292 374 ft 50 kts 22°
2026-05-07 08:06 38.77415 -9.13981 375 ft 126 kts 27°
2026-05-07 08:07 38.78419 -9.13448 413 ft 181 kts 20°
2026-05-07 08:07 38.79553 -9.12844 1275 ft 173 kts 26°
2026-05-07 08:07 38.80464 -9.11934 2194 ft 170 kts 41°
2026-05-07 08:07 38.81358 -9.11037 2937 ft 167 kts 22°
2026-05-07 08:08 38.82465 -9.10588 3511 ft 175 kts 18°
2026-05-07 08:08 38.83561 -9.09845 4085 ft 185 kts 30°
2026-05-07 08:08 38.84672 -9.08969 4722 ft 192 kts 30°
2026-05-07 08:08 38.85860 -9.08112 5237 ft 205 kts 27°
2026-05-07 08:09 38.87172 -9.07245 5701 ft 222 kts 27°
2026-05-07 08:09 38.88596 -9.06293 6095 ft 244 kts 30°
2026-05-07 08:09 38.90041 -9.05016 6599 ft 261 kts 39°
2026-05-07 08:09 38.91438 -9.03454 7196 ft 276 kts 42°
2026-05-07 08:10 38.92855 -9.01785 7979 ft 282 kts 43°
2026-05-07 08:10 38.94307 -9.00070 8841 ft 286 kts 43°
2026-05-07 08:10 38.95776 -8.98342 9681 ft 291 kts 43°
2026-05-07 08:10 38.97268 -8.96592 10450 ft 297 kts 43°
2026-05-07 08:11 38.98826 -8.94766 10922 ft 314 kts 42°
2026-05-07 08:11 39.00478 -8.92832 11369 ft 331 kts 42°
2026-05-07 08:11 39.02190 -8.90830 12065 ft 338 kts 42°
2026-05-07 08:11 39.03924 -8.88801 12857 ft 341 kts 42°
2026-05-07 08:12 39.05690 -8.86733 13614 ft 346 kts 41°
2026-05-07 08:12 39.07468 -8.84650 14359 ft 350 kts 41°
2026-05-07 08:12 39.09259 -8.82552 15119 ft 353 kts 41°
2026-05-07 08:12 39.11067 -8.80429 15833 ft 357 kts 41°
2026-05-07 08:13 39.12897 -8.78282 16541 ft 360 kts 41°
2026-05-07 08:13 39.14746 -8.76112 17259 ft 363 kts 41°
2026-05-07 08:13 39.16576 -8.73887 17945 ft 367 kts 43°
2026-05-07 08:13 39.18332 -8.71473 18615 ft 371 kts 46°
2026-05-07 08:14 39.20037 -8.68991 19269 ft 374 kts 46°
2026-05-07 08:14 39.21749 -8.66477 19906 ft 377 kts 46°
2026-05-07 08:14 39.23473 -8.63943 20540 ft 380 kts 46°
2026-05-07 08:14 39.25209 -8.61390 21154 ft 383 kts 45°
2026-05-07 08:15 39.26961 -8.58817 21755 ft 385 kts 45°
2026-05-07 08:15 39.28725 -8.56222 22355 ft 388 kts 45°
2026-05-07 08:15 39.30514 -8.53592 22926 ft 391 kts 45°
2026-05-07 08:15 39.32303 -8.50963 23482 ft 393 kts 44°
2026-05-07 08:16 39.34102 -8.48312 23908 ft 396 kts 44°
2026-05-07 08:16 39.35915 -8.45640 24422 ft 399 kts 44°
2026-05-07 08:16 39.37734 -8.42952 24945 ft 401 kts 44°
2026-05-07 08:16 39.39569 -8.40244 25422 ft 404 kts 43°
2026-05-07 08:17 39.41418 -8.37515 25859 ft 407 kts 43°
2026-05-07 08:17 39.43294 -8.34742 26299 ft 410 kts 43°
2026-05-07 08:17 39.45166 -8.31970 26724 ft 413 kts 43°
2026-05-07 08:17 39.47053 -8.29174 27127 ft 415 kts 43°
2026-05-07 08:18 39.48949 -8.26363 27534 ft 418 kts 43°
2026-05-07 08:18 39.50856 -8.23531 27919 ft 420 kts 42°
2026-05-07 08:18 39.52775 -8.20683 28273 ft 423 kts 42°
2026-05-07 08:18 39.54706 -8.17812 28631 ft 426 kts 42°
2026-05-07 08:19 39.56657 -8.14906 29002 ft 428 kts 41°
2026-05-07 08:19 39.58608 -8.11996 29331 ft 430 kts 41°
2026-05-07 08:19 39.60563 -8.09080 29686 ft 432 kts 41°
2026-05-07 08:19 39.62522 -8.06152 30067 ft 432 kts 41°
2026-05-07 08:20 39.64485 -8.03224 30400 ft 433 kts 40°
2026-05-07 08:20 39.66519 -8.00373 30720 ft 432 kts 38°
2026-05-07 08:20 39.68622 -7.97601 31027 ft 433 kts 37°
2026-05-07 08:20 39.70758 -7.94808 31291 ft 436 kts 37°
2026-05-07 08:21 39.72889 -7.92031 31568 ft 438 kts 38°
2026-05-07 08:21 39.75017 -7.89242 31977 ft 436 kts 38°
2026-05-07 08:21 39.77134 -7.86463 32342 ft 435 kts 38°
2026-05-07 08:21 39.79247 -7.83678 32675 ft 434 kts 38°
2026-05-07 08:22 39.81361 -7.80895 32996 ft 434 kts 38°
2026-05-07 08:22 39.83468 -7.78115 33285 ft 434 kts 38°
2026-05-07 08:22 39.85594 -7.75313 33553 ft 434 kts 38°
2026-05-07 08:22 39.87704 -7.72527 33821 ft 434 kts 39°
2026-05-07 08:23 39.89811 -7.69747 34087 ft 434 kts 39°
2026-05-07 08:23 39.91920 -7.66957 34322 ft 434 kts 39°
2026-05-07 08:23 39.94028 -7.64163 34477 ft 436 kts 39°
2026-05-07 08:23 39.96145 -7.61361 34588 ft 438 kts 39°
2026-05-07 08:24 39.98275 -7.58536 34697 ft 440 kts 39°
2026-05-07 08:24 40.00432 -7.55671 34801 ft 442 kts 40°
2026-05-07 08:24 40.02576 -7.52817 34952 ft 443 kts 40°
2026-05-07 08:24 40.04724 -7.49958 35080 ft 445 kts 40°
2026-05-07 08:25 40.06881 -7.47086 35215 ft 446 kts 40°
2026-05-07 08:25 40.09042 -7.44204 35353 ft 447 kts 40°
2026-05-07 08:25 40.11209 -7.41309 35484 ft 448 kts 40°
2026-05-07 08:25 40.13384 -7.38404 35600 ft 450 kts 40°
2026-05-07 08:26 40.17767 -7.32540 36017 ft 453 kts 41°
2026-05-07 08:26 40.22139 -7.26676 35903 ft 453 kts 41°
2026-05-07 08:27 40.26514 -7.20794 35876 ft 453 kts 41°
2026-05-07 08:27 40.30901 -7.14888 35873 ft 454 kts 42°
2026-05-07 08:28 40.35277 -7.08991 35867 ft 454 kts 42°
2026-05-07 08:28 40.39656 -7.03071 35865 ft 454 kts 42°
2026-05-07 08:29 40.44034 -6.97142 35864 ft 454 kts 42°
2026-05-07 08:29 40.48430 -6.91178 35872 ft 456 kts 43°
2026-05-07 08:30 40.52821 -6.85202 35877 ft 457 kts 43°
2026-05-07 08:30 40.57218 -6.79212 35879 ft 458 kts 43°
2026-05-07 08:31 40.61645 -6.73193 35880 ft 459 kts 41°
2026-05-07 08:31 40.66324 -6.67528 35885 ft 460 kts 38°
2026-05-07 08:32 40.71091 -6.61955 35883 ft 460 kts 38°
2026-05-07 08:32 40.75858 -6.56366 35883 ft 461 kts 39°
2026-05-07 08:33 40.80643 -6.50730 35883 ft 462 kts 39°
2026-05-07 08:33 40.85418 -6.45092 35886 ft 464 kts 39°
2026-05-07 08:34 40.90205 -6.39426 35883 ft 465 kts 39°
2026-05-07 08:34 40.95022 -6.33712 35886 ft 466 kts 40°
2026-05-07 08:35 40.99823 -6.28008 35887 ft 466 kts 40°
2026-05-07 08:35 41.04631 -6.22285 35887 ft 467 kts 40°
2026-05-07 08:36 41.09433 -6.16562 35889 ft 467 kts 41°
2026-05-07 08:36 41.14259 -6.10790 35887 ft 467 kts 41°
2026-05-07 08:37 41.19053 -6.05044 35887 ft 467 kts 41°
2026-05-07 08:37 41.23854 -5.99278 35888 ft 467 kts 41°
2026-05-07 08:38 41.28664 -5.93490 35892 ft 467 kts 41°
2026-05-07 08:38 41.33453 -5.87716 35896 ft 468 kts 41°
2026-05-07 08:39 41.38244 -5.81923 35895 ft 469 kts 41°
2026-05-07 08:39 41.43048 -5.76101 35895 ft 469 kts 41°
2026-05-07 08:40 41.47816 -5.70181 35899 ft 470 kts 45°
2026-05-07 08:40 41.52036 -5.63587 35899 ft 470 kts 53°
2026-05-07 08:41 41.55509 -5.56254 35904 ft 470 kts 62°
2026-05-07 08:41 41.58274 -5.48381 35907 ft 469 kts 67°
2026-05-07 08:42 41.60876 -5.40442 35914 ft 469 kts 67°
2026-05-07 08:42 41.63486 -5.32494 35923 ft 470 kts 68°
2026-05-07 08:43 41.66103 -5.24542 35922 ft 470 kts 68°
2026-05-07 08:43 41.68730 -5.16557 35925 ft 470 kts 68°
2026-05-07 08:44 41.71340 -5.08600 36027 ft 470 kts 68°
2026-05-07 08:44 41.72644 -5.04618 35786 ft 470 kts 68°
2026-05-07 08:44 41.73949 -5.00622 35858 ft 471 kts 68°
2026-05-07 08:45 41.76567 -4.92594 35906 ft 471 kts 68°
2026-05-07 08:45 41.79169 -4.84595 35939 ft 471 kts 68°
2026-05-07 08:46 41.81761 -4.76598 35929 ft 470 kts 68°
2026-05-07 08:46 41.84350 -4.68595 35940 ft 471 kts 68°
2026-05-07 08:47 41.86942 -4.60550 35935 ft 471 kts 68°
2026-05-07 08:47 41.89521 -4.52530 35933 ft 471 kts 68°
2026-05-07 08:48 41.92093 -4.44501 35931 ft 471 kts 69°
2026-05-07 08:48 41.94666 -4.36445 35922 ft 470 kts 69°
2026-05-07 08:49 41.97222 -4.28421 35924 ft 469 kts 69°
2026-05-07 08:49 41.99766 -4.20400 35926 ft 469 kts 69°
2026-05-07 08:50 42.02305 -4.12378 35924 ft 469 kts 69°
2026-05-07 08:50 42.05043 -4.04434 35930 ft 470 kts 66°
2026-05-07 08:51 42.07843 -3.96537 35928 ft 470 kts 66°
2026-05-07 08:51 42.10634 -3.88629 35926 ft 470 kts 67°
2026-05-07 08:52 42.13423 -3.80687 35937 ft 470 kts 67°
2026-05-07 08:52 42.16196 -3.72765 35935 ft 470 kts 67°
2026-05-07 08:53 42.18959 -3.64843 35934 ft 470 kts 67°
2026-05-07 08:53 42.21720 -3.56911 35939 ft 470 kts 67°
2026-05-07 08:54 42.24481 -3.48949 35937 ft 469 kts 67°
2026-05-07 08:54 42.27226 -3.41012 35939 ft 469 kts 66°
2026-05-07 08:55 42.29970 -3.33057 35948 ft 470 kts 67°
2026-05-07 08:55 42.32718 -3.25069 35954 ft 470 kts 67°
2026-05-07 08:56 42.35448 -3.17108 35956 ft 470 kts 67°
2026-05-07 08:56 42.38172 -3.09135 35957 ft 470 kts 67°
2026-05-07 08:57 42.40891 -3.01159 35959 ft 469 kts 67°
2026-05-07 08:57 42.43315 -2.92992 35968 ft 467 kts 74°
2026-05-07 08:58 42.44869 -2.84539 35960 ft 465 kts 83°
2026-05-07 08:58 42.45529 -2.75913 35960 ft 462 kts 91°
2026-05-07 08:59 42.45646 -2.67239 35956 ft 463 kts 92°
2026-05-07 08:59 42.45740 -2.58580 35955 ft 463 kts 92°
2026-05-07 09:00 42.45848 -2.49919 35953 ft 463 kts 91°
2026-05-07 09:00 42.45955 -2.41256 35946 ft 463 kts 91°
2026-05-07 09:01 42.46351 -2.32562 35951 ft 465 kts 86°
2026-05-07 09:01 42.47467 -2.23976 35952 ft 467 kts 80°
2026-05-07 09:02 42.48900 -2.15456 35948 ft 467 kts 80°
2026-05-07 09:02 42.50339 -2.06884 35957 ft 468 kts 80°
2026-05-07 09:03 42.51755 -1.98336 35968 ft 468 kts 80°
2026-05-07 09:03 42.53161 -1.89764 35974 ft 469 kts 80°
2026-05-07 09:04 42.54562 -1.81185 35978 ft 469 kts 80°
2026-05-07 09:04 42.55960 -1.72570 35981 ft 469 kts 80°
2026-05-07 09:05 42.57350 -1.63972 35984 ft 470 kts 80°
2026-05-07 09:05 42.58734 -1.55359 35978 ft 470 kts 80°
2026-05-07 09:06 42.60118 -1.46703 35976 ft 470 kts 80°
2026-05-07 09:06 42.61487 -1.38084 35970 ft 470 kts 80°
2026-05-07 09:07 42.62854 -1.29464 35968 ft 470 kts 81°
2026-05-07 09:07 42.64214 -1.20839 35993 ft 472 kts 81°
2026-05-07 09:08 42.64899 -1.16472 36141 ft 471 kts 81°
2026-05-07 09:08 42.65572 -1.12163 36356 ft 469 kts 80°
2026-05-07 09:08 42.66244 -1.07851 36583 ft 468 kts 80°
2026-05-07 09:08 42.66912 -1.03560 36770 ft 468 kts 80°
2026-05-07 09:09 42.67582 -0.99243 36942 ft 469 kts 80°
2026-05-07 09:09 42.68249 -0.94934 37099 ft 469 kts 80°
2026-05-07 09:09 42.68916 -0.90614 37259 ft 470 kts 80°
2026-05-07 09:09 42.69586 -0.86264 37426 ft 470 kts 80°
2026-05-07 09:10 42.70249 -0.81949 37588 ft 470 kts 80°
2026-05-07 09:10 42.70910 -0.77635 37745 ft 470 kts 80°
2026-05-07 09:10 42.71572 -0.73305 37888 ft 470 kts 80°
2026-05-07 09:10 42.72231 -0.68981 37968 ft 471 kts 80°
2026-05-07 09:11 42.73546 -0.60312 37973 ft 471 kts 80°
2026-05-07 09:11 42.74860 -0.51608 37978 ft 470 kts 79°
2026-05-07 09:12 42.76161 -0.42943 37978 ft 471 kts 79°
2026-05-07 09:12 42.77455 -0.34258 37980 ft 471 kts 80°
2026-05-07 09:13 42.79072 -0.25631 37980 ft 473 kts 72°
2026-05-07 09:13 42.81671 -0.17461 37983 ft 475 kts 62°
2026-05-07 09:14 42.85239 -0.09965 37987 ft 476 kts 52°
2026-05-07 09:14 42.89401 -0.03006 37994 ft 476 kts 50°
2026-05-07 09:15 42.93613 0.03933 37994 ft 476 kts 50°
2026-05-07 09:15 42.97783 0.10868 38002 ft 475 kts 51°
2026-05-07 09:16 43.01948 0.17837 37995 ft 476 kts 51°
2026-05-07 09:16 43.06118 0.24841 38000 ft 476 kts 51°
2026-05-07 09:17 43.10267 0.31829 38002 ft 475 kts 50°
2026-05-07 09:17 43.14413 0.38825 38001 ft 476 kts 51°
2026-05-07 09:18 43.18552 0.45828 38002 ft 476 kts 50°
2026-05-07 09:18 43.22708 0.52877 38001 ft 476 kts 50°
2026-05-07 09:19 43.26841 0.59904 37998 ft 476 kts 50°
2026-05-07 09:19 43.30976 0.66949 37998 ft 476 kts 51°
2026-05-07 09:20 43.35123 0.74033 38003 ft 477 kts 51°
2026-05-07 09:20 43.39249 0.81102 37999 ft 476 kts 51°
2026-05-07 09:21 43.43371 0.88178 38004 ft 477 kts 51°
2026-05-07 09:21 43.47491 0.95265 38000 ft 477 kts 51°
2026-05-07 09:22 43.51624 1.02397 38007 ft 477 kts 51°
2026-05-07 09:22 43.55738 1.09511 38006 ft 477 kts 51°
2026-05-07 09:23 43.59855 1.16649 38014 ft 478 kts 51°
2026-05-07 09:23 43.63974 1.23810 38022 ft 478 kts 51°
2026-05-07 09:24 43.68082 1.30969 38027 ft 478 kts 51°
2026-05-07 09:24 43.72048 1.38272 38028 ft 478 kts 53°
2026-05-07 09:25 43.75951 1.45647 38026 ft 478 kts 53°
2026-05-07 09:25 43.79878 1.53051 38023 ft 478 kts 53°
2026-05-07 09:26 43.83795 1.60429 38019 ft 478 kts 53°
2026-05-07 09:26 43.87718 1.67835 38017 ft 479 kts 53°
2026-05-07 09:27 43.91641 1.75262 38018 ft 479 kts 53°
2026-05-07 09:28 43.97466 1.86438 38016 ft 479 kts 54°
2026-05-07 09:28 44.01233 1.94015 38017 ft 479 kts 55°
2026-05-07 09:29 44.05004 2.01627 38013 ft 479 kts 55°
2026-05-07 09:29 44.08767 2.09221 38013 ft 479 kts 54°
2026-05-07 09:30 44.12525 2.16817 38010 ft 479 kts 54°
2026-05-07 09:30 44.16281 2.24425 38003 ft 480 kts 54°
2026-05-07 09:31 44.20050 2.32077 37996 ft 480 kts 54°
2026-05-07 09:31 44.23795 2.39703 38002 ft 480 kts 54°
2026-05-07 09:32 44.27541 2.47351 38001 ft 480 kts 54°
2026-05-07 09:32 44.31287 2.55021 38009 ft 479 kts 54°
2026-05-07 09:33 44.35016 2.62674 38002 ft 479 kts 54°
2026-05-07 09:33 44.38744 2.70344 38007 ft 480 kts 55°
2026-05-07 09:34 44.42472 2.78035 37996 ft 480 kts 55°
2026-05-07 09:34 44.46205 2.85758 37991 ft 480 kts 55°
2026-05-07 09:35 44.49918 2.93463 37990 ft 480 kts 55°
2026-05-07 09:35 44.53628 3.01181 37986 ft 480 kts 55°
2026-05-07 09:36 44.57348 3.08945 37987 ft 480 kts 55°
2026-05-07 09:36 44.61005 3.16721 37976 ft 480 kts 57°
2026-05-07 09:37 44.64317 3.24806 37976 ft 481 kts 59°
2026-05-07 09:37 44.67560 3.32951 37975 ft 481 kts 59°
2026-05-07 09:38 44.70819 3.41124 37962 ft 481 kts 59°
2026-05-07 09:38 44.74067 3.49278 37961 ft 481 kts 59°
2026-05-07 09:39 44.77312 3.57442 37965 ft 481 kts 59°
2026-05-07 09:39 44.80564 3.65640 37966 ft 480 kts 60°
2026-05-07 09:40 44.83795 3.73813 37963 ft 480 kts 60°
2026-05-07 09:40 44.87018 3.81993 37971 ft 480 kts 60°
2026-05-07 09:41 44.90235 3.90179 37979 ft 480 kts 60°
2026-05-07 09:41 44.93457 3.98402 37981 ft 480 kts 60°
2026-05-07 09:42 44.96669 4.06626 37985 ft 481 kts 60°
2026-05-07 09:42 44.99872 4.14858 37983 ft 481 kts 60°
2026-05-07 09:43 45.03082 4.23132 37980 ft 482 kts 60°
2026-05-07 09:43 45.06282 4.31390 37977 ft 482 kts 60°
2026-05-07 09:44 45.09473 4.39655 37981 ft 481 kts 59°
2026-05-07 09:44 45.12667 4.47955 37978 ft 481 kts 60°
2026-05-07 09:45 45.15856 4.56270 37979 ft 481 kts 60°
2026-05-07 09:45 45.19024 4.64555 37986 ft 481 kts 60°
2026-05-07 09:46 45.22198 4.72870 37997 ft 481 kts 60°
2026-05-07 09:46 45.25366 4.81200 37996 ft 481 kts 60°
2026-05-07 09:47 45.28518 4.89515 37997 ft 481 kts 60°
2026-05-07 09:47 45.31663 4.97837 38002 ft 481 kts 60°
2026-05-07 09:48 45.34802 5.06172 37995 ft 480 kts 60°
2026-05-07 09:48 45.37947 5.14544 38004 ft 481 kts 60°
2026-05-07 09:49 45.41068 5.22885 38020 ft 480 kts 60°
2026-05-07 09:49 45.44187 5.31247 38016 ft 481 kts 60°
2026-05-07 09:50 45.47615 5.39381 38004 ft 480 kts 53°
2026-05-07 09:50 45.51674 5.46834 37991 ft 478 kts 46°
2026-05-07 09:51 45.56319 5.53510 38000 ft 476 kts 39°
2026-05-07 09:51 45.61244 5.59746 37994 ft 475 kts 38°
2026-05-07 09:52 45.66179 5.65995 37992 ft 475 kts 39°
2026-05-07 09:52 45.71080 5.72268 37995 ft 475 kts 40°
2026-05-07 09:53 45.75970 5.78542 37997 ft 475 kts 40°
2026-05-07 09:53 45.80878 5.84852 38002 ft 474 kts 40°
2026-05-07 09:54 45.85758 5.91143 38005 ft 474 kts 40°
2026-05-07 09:54 45.90637 5.97448 38005 ft 475 kts 40°
2026-05-07 09:55 45.95526 6.03775 38012 ft 475 kts 40°
2026-05-07 09:55 46.00422 6.10135 38017 ft 475 kts 40°
2026-05-07 09:56 46.05285 6.16500 38021 ft 475 kts 41°
2026-05-07 09:56 46.09803 6.23404 38033 ft 477 kts 48°
2026-05-07 09:57 46.13778 6.31045 38026 ft 477 kts 53°
2026-05-07 09:57 46.17556 6.38848 38015 ft 478 kts 53°
2026-05-07 09:58 46.21338 6.46667 38007 ft 477 kts 53°
2026-05-07 09:58 46.25117 6.54468 38012 ft 477 kts 53°
2026-05-07 09:59 46.28912 6.62316 38012 ft 477 kts 53°
2026-05-07 09:59 46.32688 6.70145 38018 ft 478 kts 54°
2026-05-07 10:00 46.36459 6.77983 38022 ft 477 kts 54°
2026-05-07 10:00 46.40237 6.85858 38027 ft 477 kts 54°
2026-05-07 10:01 46.43997 6.93716 38027 ft 477 kts 54°
2026-05-07 10:01 46.47753 7.01593 38021 ft 477 kts 54°
2026-05-07 10:02 46.51501 7.09476 38015 ft 477 kts 54°
2026-05-07 10:02 46.55527 7.17096 38025 ft 476 kts 46°
2026-05-07 10:03 46.60353 7.23525 38026 ft 473 kts 35°
2026-05-07 10:03 46.65880 7.28561 38029 ft 470 kts 24°
2026-05-07 10:04 46.71792 7.32541 38029 ft 468 kts 21°
2026-05-07 10:04 46.77672 7.36501 38023 ft 470 kts 25°
2026-05-07 10:05 46.83027 7.41914 38019 ft 474 kts 40°
2026-05-07 10:05 46.87400 7.49040 38021 ft 476 kts 54°
2026-05-07 10:06 46.90643 7.57405 37845 ft 470 kts 63°
2026-05-07 10:06 46.92067 7.61659 37389 ft 469 kts 63°
2026-05-07 10:06 46.93486 7.65935 37096 ft 472 kts 64°
2026-05-07 10:07 46.96370 7.74555 37024 ft 473 kts 63°
2026-05-07 10:07 46.99273 7.83172 37021 ft 473 kts 63°
2026-05-07 10:08 47.02170 7.91769 37032 ft 473 kts 63°
2026-05-07 10:08 47.05066 8.00386 37035 ft 474 kts 63°
2026-05-07 10:09 47.07955 8.09007 37032 ft 473 kts 63°
2026-05-07 10:09 47.10852 8.17680 37037 ft 473 kts 63°
2026-05-07 10:10 47.13728 8.26315 37046 ft 474 kts 63°
2026-05-07 10:10 47.16613 8.35013 37042 ft 474 kts 63°
2026-05-07 10:11 47.19490 8.43717 37041 ft 474 kts 63°
2026-05-07 10:11 47.22357 8.52414 37037 ft 475 kts 63°
2026-05-07 10:12 47.25210 8.61102 37038 ft 475 kts 63°
2026-05-07 10:12 47.28063 8.69818 37033 ft 474 kts 64°
2026-05-07 10:13 47.30916 8.78564 37025 ft 474 kts 64°
2026-05-07 10:13 47.33754 8.87292 37035 ft 474 kts 64°
2026-05-07 10:14 47.36578 8.96011 37037 ft 474 kts 64°
2026-05-07 10:14 47.39411 9.04782 37043 ft 475 kts 64°
2026-05-07 10:15 47.42230 9.13543 37046 ft 475 kts 64°
2026-05-07 10:15 47.45041 9.22312 37042 ft 475 kts 64°
2026-05-07 10:16 47.47844 9.31085 37039 ft 475 kts 64°
2026-05-07 10:16 47.50655 9.39915 37039 ft 476 kts 64°
2026-05-07 10:17 47.53446 9.48711 37041 ft 475 kts 65°
2026-05-07 10:17 47.56073 9.57619 37043 ft 475 kts 70°
2026-05-07 10:18 47.57724 9.67049 37043 ft 474 kts 82°
2026-05-07 10:18 47.58210 9.76728 37044 ft 472 kts 92°
2026-05-07 10:19 47.57856 9.86392 37046 ft 473 kts 96°
2026-05-07 10:19 47.57424 9.95967 36305 ft 467 kts 95°
2026-05-07 10:19 47.57214 10.00785 35079 ft 473 kts 95°
2026-05-07 10:20 47.57007 10.05606 33753 ft 478 kts 95°
2026-05-07 10:20 47.56798 10.10462 32628 ft 480 kts 95°
2026-05-07 10:20 47.56588 10.15343 31479 ft 482 kts 94°
2026-05-07 10:20 47.56378 10.20230 30503 ft 480 kts 94°
2026-05-07 10:21 47.56171 10.25087 29970 ft 471 kts 94°
2026-05-07 10:21 47.55965 10.29848 29448 ft 463 kts 94°
2026-05-07 10:21 47.55754 10.34578 28859 ft 458 kts 94°
2026-05-07 10:21 47.55544 10.39224 28224 ft 454 kts 94°
2026-05-07 10:22 47.55331 10.43837 27530 ft 452 kts 93°
2026-05-07 10:22 47.55117 10.48425 26956 ft 447 kts 93°
2026-05-07 10:22 47.55077 10.52964 26401 ft 441 kts 84°
2026-05-07 10:22 47.55728 10.57329 25895 ft 434 kts 69°
2026-05-07 10:23 47.57013 10.61283 25399 ft 426 kts 58°
2026-05-07 10:23 47.58530 10.65020 24906 ft 421 kts 57°
2026-05-07 10:23 47.60059 10.68692 24418 ft 416 kts 57°
2026-05-07 10:23 47.61556 10.72316 23935 ft 411 kts 57°
2026-05-07 10:24 47.63016 10.75901 23454 ft 407 kts 57°
2026-05-07 10:24 47.64454 10.79467 22961 ft 404 kts 58°
2026-05-07 10:24 47.65876 10.83012 22498 ft 400 kts 58°
2026-05-07 10:24 47.67315 10.86489 22017 ft 396 kts 54°
2026-05-07 10:25 47.69023 10.89668 21545 ft 391 kts 45°
2026-05-07 10:25 47.70978 10.92403 21084 ft 387 kts 38°
2026-05-07 10:25 47.73049 10.94887 20622 ft 383 kts 36°
2026-05-07 10:25 47.75122 10.97303 20167 ft 381 kts 36°
2026-05-07 10:26 47.77187 10.99711 19696 ft 378 kts 36°
2026-05-07 10:26 47.79239 11.02122 19240 ft 376 kts 36°
2026-05-07 10:26 47.81266 11.04526 18793 ft 374 kts 36°
2026-05-07 10:26 47.83290 11.06934 18331 ft 371 kts 36°
2026-05-07 10:27 47.85292 11.09322 17893 ft 369 kts 36°
2026-05-07 10:27 47.87283 11.11696 17425 ft 367 kts 36°
2026-05-07 10:27 47.89263 11.14048 16995 ft 365 kts 36°
2026-05-07 10:27 47.91236 11.16393 16539 ft 363 kts 36°
2026-05-07 10:28 47.93193 11.18723 16091 ft 362 kts 37°
2026-05-07 10:28 47.95148 11.21052 15645 ft 360 kts 37°
2026-05-07 10:28 47.97099 11.23386 15202 ft 360 kts 37°
2026-05-07 10:28 47.99034 11.25726 14763 ft 360 kts 37°
2026-05-07 10:29 48.00957 11.28056 14264 ft 358 kts 37°
2026-05-07 10:29 48.02884 11.30388 13750 ft 356 kts 37°
2026-05-07 10:29 48.04807 11.32720 13266 ft 354 kts 37°
2026-05-07 10:30 48.08303 11.37726 12343 ft 351 kts 57°
2026-05-07 10:30 48.09460 11.40933 11921 ft 348 kts 63°
2026-05-07 10:30 48.10514 11.44174 11452 ft 346 kts 64°
2026-05-07 10:30 48.11546 11.47396 10976 ft 345 kts 64°
2026-05-07 10:31 48.12572 11.50601 10535 ft 342 kts 64°
2026-05-07 10:31 48.13579 11.53746 10335 ft 331 kts 64°
2026-05-07 10:31 48.14553 11.56790 10147 ft 321 kts 64°
2026-05-07 10:31 48.15497 11.59740 9955 ft 311 kts 64°
2026-05-07 10:32 48.16418 11.62626 9669 ft 305 kts 64°
2026-05-07 10:32 48.17321 11.65461 9287 ft 304 kts 64°
2026-05-07 10:32 48.18215 11.68283 8890 ft 302 kts 64°
2026-05-07 10:32 48.19101 11.71090 8500 ft 300 kts 64°
2026-05-07 10:33 48.19983 11.73889 8116 ft 298 kts 64°
2026-05-07 10:33 48.20857 11.76681 7737 ft 296 kts 64°
2026-05-07 10:33 48.21717 11.79450 7351 ft 294 kts 64°
2026-05-07 10:33 48.22575 11.82233 6969 ft 293 kts 64°
2026-05-07 10:34 48.23413 11.84980 6589 ft 291 kts 64°
2026-05-07 10:34 48.24244 11.87720 6223 ft 289 kts 64°
2026-05-07 10:34 48.25058 11.90419 5851 ft 287 kts 64°
2026-05-07 10:34 48.25872 11.93127 5477 ft 286 kts 64°
2026-05-07 10:35 48.26681 11.95825 5110 ft 284 kts 64°
2026-05-07 10:35 48.27480 11.98496 4747 ft 282 kts 64°
2026-05-07 10:35 48.28280 12.01186 4369 ft 280 kts 64°
2026-05-07 10:35 48.29064 12.03837 4033 ft 277 kts 64°
2026-05-07 10:36 48.29838 12.06472 3968 ft 278 kts 64°
2026-05-07 10:36 48.30616 12.09120 3964 ft 276 kts 64°
2026-05-07 10:36 48.31365 12.11677 3956 ft 260 kts 64°
2026-05-07 10:36 48.32063 12.14077 3951 ft 244 kts 64°
2026-05-07 10:37 48.32801 12.16319 3948 ft 238 kts 50°
2026-05-07 10:37 48.34058 12.17833 3951 ft 230 kts 16°
2026-05-07 10:37 48.35563 12.18067 3943 ft 210 kts 341°
2026-05-07 10:37 48.36754 12.17045 3948 ft 197 kts 307°
2026-05-07 10:38 48.37495 12.15371 4027 ft 188 kts 296°
2026-05-07 10:38 48.38094 12.13650 4027 ft 186 kts 295°
2026-05-07 10:38 48.38543 12.11853 3982 ft 184 kts 281°
2026-05-07 10:38 48.38656 12.09945 3974 ft 184 kts 270°
2026-05-07 10:39 48.38615 12.08019 3971 ft 184 kts 268°
2026-05-07 10:39 48.38533 12.06114 3968 ft 184 kts 265°
2026-05-07 10:39 48.38415 12.04211 3966 ft 184 kts 264°
2026-05-07 10:39 48.38276 12.02311 3968 ft 184 kts 264°
2026-05-07 10:40 48.38128 12.00404 3840 ft 183 kts 264°
2026-05-07 10:40 48.37976 11.98519 3603 ft 179 kts 264°
2026-05-07 10:40 48.37835 11.96763 3400 ft 160 kts 264°
2026-05-07 10:40 48.37709 11.95185 3163 ft 144 kts 264°
2026-05-07 10:41 48.37597 11.93778 2949 ft 131 kts 263°
2026-05-07 10:41 48.37491 11.92432 2791 ft 130 kts 264°
2026-05-07 10:41 48.37385 11.91090 2642 ft 130 kts 266°
2026-05-07 10:41 48.37280 11.89751 2475 ft 130 kts 267°
2026-05-07 10:42 48.37180 11.88417 2299 ft 129 kts 262°
2026-05-07 10:42 48.37077 11.87088 2142 ft 129 kts 261°
2026-05-07 10:42 48.36970 11.85746 1944 ft 128 kts 264°
2026-05-07 10:42 48.36867 11.84425 1797 ft 128 kts 264°
2026-05-07 10:43 48.36766 11.83111 1607 ft 126 kts 262°
2026-05-07 10:43 48.36649 11.81831 1449 ft 121 kts 260°
2026-05-07 10:43 48.36570 11.80766 1447 ft 79 kts 266°
2026-05-07 10:43 48.36527 11.80158 1450 ft 48 kts 265°
2026-05-07 10:44 48.36474 11.79811 1453 ft 23 kts 252°
2026-05-07 10:44 48.36435 11.79671 1454 ft 11 kts 242°
2026-05-07 10:44 48.36396 11.79575 1455 ft 11 kts 238°
2026-05-07 10:44 48.36352 11.79489 1456 ft 10 kts 226°
2026-05-07 10:45 48.36311 11.79421 1458 ft 8 kts 229°
2026-05-07 10:45 48.36280 11.79367 1460 ft 6 kts 230°
2026-05-07 10:45 48.36249 11.79313 1460 ft 7 kts 230°
2026-05-07 10:45 48.36219 11.79258 1460 ft 5 kts 205°
2026-05-07 10:46 48.36186 11.79285 1460 ft 6 kts 145°
2026-05-07 10:46 48.36147 11.79307 1461 ft 5 kts 166°
2026-05-07 10:46 48.36112 11.79317 1462 ft 6 kts 171°
2026-05-07 10:46 48.36057 11.79328 1464 ft 10 kts 174°
2026-05-07 10:47 48.35978 11.79340 1466 ft 12 kts 175°
2026-05-07 10:47 48.35896 11.79348 1466 ft 12 kts 178°
2026-05-07 10:47 48.35817 11.79381 1466 ft 12 kts 164°
2026-05-07 10:47 48.35733 11.79406 1466 ft 12 kts 174°
2026-05-07 10:48 48.35647 11.79420 1466 ft 13 kts 172°
2026-05-07 10:48 48.35559 11.79437 1466 ft 13 kts 173°
2026-05-07 10:48 48.35467 11.79453 1466 ft 14 kts 174°
2026-05-07 10:48 48.35381 11.79467 1464 ft 12 kts 174°
2026-05-07 10:49 48.35331 11.79475 1464 ft 4 kts 174°
2026-05-07 10:49 48.35305 11.79475 1464 ft 3 kts 195°
2026-05-07 10:49 48.35292 11.79462 1464 ft 1 kts 230°
2026-05-07 10:49 48.35289 11.79455 1465 ft 1 kts 242°
2026-05-07 10:50 48.35284 11.79438 1465 ft 3 kts 246°
2026-05-07 10:50 48.35280 11.79414 1465 ft 2 kts 258°
2026-05-07 10:50 48.35275 11.79372 1466 ft 6 kts 261°
2026-05-07 10:50 48.35271 11.79335 1466 ft 4 kts 264°
2026-05-07 10:51 48.35271 11.79327 1466 ft 0 kts 264°